Regional Weather Roundup
Issued by NWS

Home | Current Version | Previous Version | Text Only | Print | Product List | Glossary On
Versions: 1 2 3 4 5 6 7 8 9 10 11 12 13 14 15 16 17 18 19 20 21 22 23 24 25 26 27 28 29 30 31 32 33 34 35 36 37 38 39 40 41 42 43 44 45 46 47 48 49 50
000
ASUS42 KFFC 212310
RWRGA
WEATHER ROUNDUP FOR GEORGIA
NATIONAL WEATHER SERVICE PEACHTREE CITY GA
700 PM EDT SAT OCT 21 2017

NOTE: "FAIR" INDICATES FEW OR NO CLOUDS BELOW 12,000 FEET WITH NO
SIGNIFICANT WEATHER AND/OR OBSTRUCTIONS TO VISIBILITY.

* = USE WITH CAUTION. THE STATIONS MARKED WITH AN ASTERISK MAY NOT
REPORT WEATHER SUCH AS PRECIPITATION, FOG, OR THUNDER AND ARE NOT
QUALITY CONTROLLED BY NWS.

THE REMARK "TC" DENOTES TEMPERATURE READING IN DEGREES CELSIUS.

GAZ001>058-220000-
NORTH GEORGIA

CITY           SKY/WX    TMP DP  RH WIND       PRES   REMARKS
ATLANTA        MOCLDY    72  57  59 E6        30.26R
ATHENS         PTCLDY    65  58  78 E5        30.28S
CHAMBLEE       CLOUDY    70  53  54 E3        30.26S
PEACHTREE CITY CLEAR     68  62  81 VRB3      30.25S
ROME           PTCLDY    69  57  65 E5        30.22F
WEST ATLANTA   CLEAR     73  58  59 SE6       30.25R
GAINESVILLE    CLEAR     66  52  60 E6        30.30S
CARTERSVILLE   PTCLDY    63  61  93 CALM      30.24F


CITY           SKY/WX    TMP DP  RH WIND       PRES   REMARKS
DALTON*        CLOUDY    70  50  49 SE5       30.26S
LAWRENCEVILLE* CLEAR     67  50  54 E3        30.28S
MARIETTA       MOCLDY    69  53  57 E6        30.25S
KENNESAW*      CLOUDY    71  53  52 E7        30.26S
CANTON*        PTCLDY    70  54  56 CALM      30.28S
$$

GAZ059>098-102>109-220000-
CENTRAL GEORGIA

CITY           SKY/WX    TMP DP  RH WIND       PRES   REMARKS
AUGUSTA-BUSH   CLOUDY    68  58  70 CALM      30.26R
AUGUSTA-DANIEL CLOUDY    76  48  37 NE6       30.27S
COLUMBUS       CLOUDY    77  59  53 E12       30.19S
MACON          CLOUDY    71  60  68 NE8       30.23S
ROBINS AFB     CLEAR     73  59  62 CALM      30.22S


CITY           SKY/WX    TMP DP  RH WIND       PRES   REMARKS
LAGRANGE*      CLOUDY    73  61  67 CALM      30.23R
SYLVANIA*      PTCLDY    73  64  73 SE3       30.26S
$$

GAZ099>101-110>166-220000-
SOUTH GEORGIA

CITY           SKY/WX    TMP DP  RH WIND       PRES   REMARKS
SAVANNAH       PTCLDY    74  64  71 E5        30.25S
VALDOSTA       MOCLDY    77  63  61 E5        30.18R
ALMA           PTCLDY    76  64  66 E5        30.22R
ST SIMONS      PTCLDY    75  70  84 NE13      30.22R
FT STEWART     CLEAR     73  63  72 E7        30.22S
ALBANY         PTCLDY    79  60  52 NE10      30.19S
HUNTER AFB     CLEAR     73  66  77 E7        30.22S
MOODY AFB      MOCLDY    76  62  60 E8        30.18S
BRUNSWICK      PTCLDY    72  66  83 NE8       30.23S


CITY           SKY/WX    TMP DP  RH WIND       PRES   REMARKS
BAINBRIDGE*    CLOUDY    79  64  61 E6        30.15S
MOULTRIE*      PTCLDY    77  63  61 E5        30.18S
VIDALIA*       PTCLDY    73  63  68 E6        30.24R
WAYCROSS*      PTCLDY    75  65  70 E7        30.22S
DOUGLAS*       PTCLDY    75  61  60 E6        30.22S
$$




USA.gov is the U.S. government's official web portal to all federal, state and local government web resources and services.